Weather History for Dublin, GA

Change the Weather History Date:

Thursday, April 10, 2014

  Actual Average Record
Temperature  
Mean Temperature 59 °F -  
Max Temperature 77 °F 74 °F 94 °F (1978)
Min Temperature 41 °F 45 °F 33 °F (1972)
Degree Days  
Heating Degree Days 6    
Growing Degree Days 9 (Base 50)    
Moisture  
Dew Point 43 °F    
Average Humidity 66    
Maximum Humidity 100    
Minimum Humidity 26    
Precipitation  
Precipitation 0.00 in - - ()
Sea Level Pressure  
Sea Level Pressure 30.25 in    
Wind  
Wind Speed 1 mph (WSW)    
Max Wind Speed 10 mph    
Max Gust Speed 18 mph    
Visibility 10 miles    
Events      
Averages and records for this station are not official NWS values.
T = Trace of Precipitation, MM = Missing Value Source: NWS Daily Summary

Daily Weather History Graph

Daily Weather History Graph

Search for Another Location

Airport:

Trip Planner

Search our weather history database for the weather conditions in past years. The results will help you decide how hot, cold, wet, or windy it might be!

Date:

Astronomy

Apr. 10, 2014 Rise Set
Actual Time 7:08 AM EDT 7:58 PM EDT
Civil Twilight 6:43 AM EDT 8:23 PM EDT
Nautical Twilight 6:14 AM EDT 8:52 PM EDT
Astronomical Twilight 5:43 AM EDT 9:23 PM EDT
Moon 3:54 PM EDT (4/10) 4:16 AM EDT (4/10)
Length of Visible Light 13h 39m
Length of Day
12h 49m
Waxing Gibbous, 79% of the Moon is Illuminated
Apr 10
Waxing Gibbous
Apr 15
Full
Apr 22
Last Quarter
Apr 29
New
May 6
First Quarter

Hourly Weather History & Observations

Time (EDT) Temp. Dew Point Humidity Pressure Visibility Wind Dir Wind Speed Gust Speed Precip Events Conditions
12:15 AM 46.4 °F 44.6 °F 93% 30.19 in 10.0 mi Calm Calm - N/A   Clear
12:35 AM 46.4 °F 44.6 °F 93% 30.19 in 10.0 mi Calm Calm - N/A   Clear
12:55 AM 46.4 °F 44.6 °F 93% 30.19 in 10.0 mi Calm Calm - N/A   Clear
1:15 AM 44.6 °F 44.6 °F 100% 30.20 in 10.0 mi Calm Calm - N/A   Clear
1:35 AM 44.6 °F 44.6 °F 100% 30.19 in 10.0 mi Calm Calm - N/A   Clear
1:55 AM 46.4 °F 44.6 °F 93% 30.19 in 10.0 mi Calm Calm - N/A   Clear
2:15 AM 44.6 °F 44.6 °F 100% 30.19 in 10.0 mi Calm Calm - N/A   Clear
2:35 AM 44.6 °F 42.8 °F 93% 30.19 in 10.0 mi Calm Calm - N/A   Clear
2:55 AM 44.6 °F 42.8 °F 93% 30.20 in 10.0 mi Calm Calm - N/A   Clear
3:15 AM 44.6 °F 42.8 °F 93% 30.20 in 10.0 mi Calm Calm - N/A   Clear
3:35 AM 42.8 °F 42.8 °F 100% 30.20 in 10.0 mi Calm Calm - N/A   Clear
3:55 AM 42.8 °F 42.8 °F 100% 30.20 in 10.0 mi Calm Calm - N/A   Clear
4:15 AM 42.8 °F 42.8 °F 100% 30.21 in 10.0 mi Calm Calm - N/A   Clear
4:35 AM 42.8 °F 42.8 °F 100% 30.21 in 10.0 mi Calm Calm - N/A   Clear
4:55 AM 42.8 °F 42.8 °F 100% 30.22 in 7.0 mi Calm Calm - N/A   Clear
5:15 AM 42.8 °F 42.8 °F 100% 30.22 in 10.0 mi Calm Calm - N/A   Clear
5:35 AM 42.8 °F 42.8 °F 100% 30.23 in 10.0 mi Calm Calm - N/A   Clear
5:55 AM 41.0 °F 41.0 °F 100% 30.24 in 7.0 mi Calm Calm - N/A   Clear
6:15 AM 41.0 °F 41.0 °F 100% 30.24 in 10.0 mi Calm Calm - N/A   Clear
6:35 AM 41.0 °F 41.0 °F 100% 30.25 in 7.0 mi Calm Calm - N/A   Clear
6:55 AM 41.0 °F 41.0 °F 100% 30.26 in 7.0 mi Calm Calm - N/A   Clear
7:15 AM 41.0 °F 41.0 °F 100% 30.27 in 7.0 mi Calm Calm - N/A   Clear
7:35 AM 41.0 °F 41.0 °F 100% 30.28 in 7.0 mi Calm Calm - N/A   Clear
7:55 AM 42.8 °F 42.8 °F 100% 30.29 in 10.0 mi Calm Calm - N/A   Clear
8:15 AM 44.6 °F 44.6 °F 100% 30.29 in 10.0 mi Calm Calm - N/A   Clear
8:35 AM 48.2 °F 46.4 °F 93% 30.30 in 10.0 mi Calm Calm - N/A   Clear
8:55 AM 51.8 °F 46.4 °F 82% 30.31 in 10.0 mi Calm Calm - N/A   Clear
9:15 AM 55.4 °F 46.4 °F 72% 30.31 in 10.0 mi Calm Calm - N/A   Clear
9:35 AM 59.0 °F 50.0 °F 72% 30.31 in 10.0 mi Calm Calm - N/A   Clear
9:55 AM 60.8 °F 46.4 °F 59% 30.31 in 10.0 mi Calm Calm - N/A   Clear
10:15 AM 64.4 °F 46.4 °F 52% 30.32 in 10.0 mi Calm Calm - N/A   Clear
10:35 AM 66.2 °F 46.4 °F 49% 30.32 in 10.0 mi Calm Calm - N/A   Clear
10:55 AM 68.0 °F 42.8 °F 40% 30.32 in 10.0 mi Calm Calm - N/A   Clear
11:15 AM 69.8 °F 42.8 °F 38% 30.32 in 10.0 mi ESE 4.6 mph - N/A   Clear
11:35 AM 69.8 °F 37.4 °F 31% 30.32 in 10.0 mi Calm Calm - N/A   Clear
11:55 AM 71.6 °F 39.2 °F 31% 30.32 in 10.0 mi West 3.5 mph - N/A   Clear
12:15 PM 71.6 °F 37.4 °F 29% 30.31 in 10.0 mi WSW 5.8 mph - N/A   Clear
12:35 PM 71.6 °F 37.4 °F 29% 30.31 in 10.0 mi West 4.6 mph - N/A   Clear
12:55 PM 73.4 °F 37.4 °F 27% 30.29 in 10.0 mi West 8.1 mph - N/A   Clear
1:15 PM 73.4 °F 41.0 °F 31% 30.28 in 10.0 mi West 8.1 mph - N/A   Clear
1:35 PM 73.4 °F 39.2 °F 29% 30.28 in 10.0 mi South 6.9 mph - N/A   Clear
1:55 PM 73.4 °F 39.2 °F 29% 30.27 in 10.0 mi West 8.1 mph - N/A   Clear
2:15 PM 73.4 °F 39.2 °F 29% 30.26 in 10.0 mi West 10.4 mph - N/A   Clear
2:35 PM 75.2 °F 39.2 °F 27% 30.26 in 10.0 mi SSW 9.2 mph - N/A   Clear
2:55 PM 77.0 °F 39.2 °F 26% 30.25 in 10.0 mi West 8.1 mph - N/A   Clear
3:15 PM 77.0 °F 39.2 °F 26% 30.24 in 10.0 mi Calm Calm - N/A   Clear
3:35 PM 77.0 °F 41.0 °F 28% 30.24 in 10.0 mi SW 8.1 mph - N/A   Clear
3:55 PM 77.0 °F 39.2 °F 26% 30.22 in 10.0 mi WSW 10.4 mph 18.4 mph N/A   Clear
4:15 PM 77.0 °F 41.0 °F 28% 30.22 in 10.0 mi SSW 6.9 mph - N/A   Clear
4:35 PM 77.0 °F 39.2 °F 26% 30.22 in 10.0 mi WSW 5.8 mph - N/A   Clear
4:55 PM 77.0 °F 39.2 °F 26% 30.21 in 10.0 mi SSW 5.8 mph - N/A   Clear
5:15 PM 77.0 °F 41.0 °F 28% 30.21 in 10.0 mi WNW 5.8 mph - N/A   Clear
5:35 PM 77.0 °F 39.2 °F 26% 30.21 in 10.0 mi SSW 6.9 mph - N/A   Clear
5:55 PM 77.0 °F 41.0 °F 28% 30.21 in 10.0 mi West 9.2 mph - N/A   Clear
6:15 PM 77.0 °F 41.0 °F 28% 30.21 in 10.0 mi SW 5.8 mph - N/A   Clear
6:35 PM 75.2 °F 39.2 °F 27% 30.21 in 10.0 mi WSW 8.1 mph - N/A   Clear
6:55 PM 73.4 °F 37.4 °F 27% 30.21 in 10.0 mi SW 5.8 mph - N/A   Clear
7:15 PM 73.4 °F 41.0 °F 31% 30.21 in 10.0 mi SW 4.6 mph - N/A   Clear
7:35 PM 71.6 °F 41.0 °F 33% 30.21 in 10.0 mi WSW 3.5 mph - N/A   Clear
7:55 PM 69.8 °F 42.8 °F 38% 30.22 in 10.0 mi Calm Calm - N/A   Clear
8:15 PM 64.4 °F 46.4 °F 52% 30.22 in 10.0 mi Calm Calm - N/A   Clear
8:35 PM 62.6 °F 48.2 °F 59% 30.23 in 10.0 mi Calm Calm - N/A   Clear
8:55 PM 59.0 °F 51.8 °F 77% 30.24 in 10.0 mi Calm Calm - N/A   Clear
9:15 PM 55.4 °F 51.8 °F 88% 30.24 in 10.0 mi Calm Calm - N/A   Clear
9:35 PM 55.4 °F 51.8 °F 88% 30.25 in 10.0 mi Calm Calm - N/A   Clear
9:55 PM 53.6 °F 51.8 °F 94% 30.26 in 10.0 mi Calm Calm - N/A   Clear
10:15 PM 53.6 °F 51.8 °F 94% 30.26 in 10.0 mi Calm Calm - N/A   Clear
10:35 PM 53.6 °F 51.8 °F 94% 30.26 in 10.0 mi Calm Calm - N/A   Clear
10:55 PM 53.6 °F 50.0 °F 88% 30.26 in 10.0 mi Calm Calm - N/A   Clear
11:15 PM 53.6 °F 50.0 °F 88% 30.26 in 10.0 mi Calm Calm - N/A   Clear
11:35 PM 51.8 °F 50.0 °F 94% 30.26 in 10.0 mi Calm Calm - N/A   Clear
11:55 PM 51.8 °F 50.0 °F 94% 30.26 in 10.0 mi Calm Calm - N/A   Clear